Dewpoint
6 8 9 9 9 10 9 9 10 10 10 9 7 6 9 10 10 9 9 9 9 9 8 7 7 5 1 1 -4 -6 -10 -11 -9 -2 -1 -1 -2 -3 -4 -5 -5 -5 -5
6 7 8 8 8 9 10 10 10 10 10 9 6 7 9 10 9 9 8 9 8 7 7 7 7 2 1 -2 -4 -7 -10 -4 -3 -0 -0 0 -1 -2 -3 -5 -5 -4 -5
6 7 8 8 8 8 9 9 9 10 10 9 7 9 9 9 8 8 8 8 8 7 7 7 6 -0 -1 -2 -4 -6 -12 -1 -0 -1 1 -1 -3 -4 -4 -3 -4 -4 -5
6 7 9 9 9 9 9 9 9 10 10 10 9 9 8 9 8 8 7 8 6 6 7 7 5 -1 -1 -2 -4 -9 -7 -2 2 1 -1 -2 -5 -8 -7 -4 -4 -4 -5
5 6 7 8 10 9 9 10 10 10 10 10 9 9 9 9 10 7 8 7 6 5 6 5 2 -1 -1 -2 -6 -11 -5 2 -0 -0 -1 -3 -5 -5 -6 -6 -9 -8 -7
5 5 6 8 8 10 10 10 10 10 10 10 7 8 9 10 9 8 7 7 6 5 4 2 0 -0 -1 -3 -9 -9 1 0 0 -1 -5 -6 -5 -5 -6 -7 -8 -8 -7
5 6 7 7 8 9 10 10 10 10 10 9 7 7 8 9 6 7 7 8 7 5 3 1 1 -0 0 -1 -9 -2 3 1 -1 -7 -4 -3 -4 -6 -7 -7 -8 -7 -8
4 5 6 7 8 9 10 10 9 10 10 8 6 7 7 7 7 6 8 9 8 6 5 2 5 1 -0 -4 -8 3 2 -1 -4 -5 -2 -4 -4 -5 -6 -6 -7 -7 -9
-0 2 4 6 8 9 10 11 11 10 10 10 9 9 8 7 7 7 8 9 8 6 5 4 6 -0 -2 -10 0 2 -2 -9 -6 -1 -1 -3 -5 -4 -4 -5 -6 -7 -8
2 1 3 4 6 8 9 11 11 10 10 11 10 10 9 9 8 8 8 8 8 8 5 4 3 -0 1 -4 3 -3 -6 -2 -0 -1 -2 -3 -5 -6 -5 -7 -7 -7 -7
2 4 4 4 5 7 9 10 10 9 10 11 11 10 10 10 9 6 7 8 9 9 7 5 5 5 -3 1 -6 -9 -3 -3 -2 -1 -4 -4 -6 -7 -6 -6 -7 -7 -7
2 5 6 6 6 7 8 9 9 9 10 10 11 10 9 9 9 9 9 9 9 8 8 6 6 2 -3 -3 -9 -6 -3 -1 0 -2 -4 -5 -6 -5 -5 -6 -6 -6 -7
1 5 7 7 6 4 7 8 7 9 9 7 7 8 8 9 9 9 9 9 8 8 7 6 4 -2 -3 -9 -5 -6 -2 -0 -0 -3 -4 -5 -5 -5 -5 -5 -6 -7 -7
3 4 7 8 9 9 7 7 7 7 8 8 8 8 9 9 9 9 9 8 8 8 7 5 1 -2 -8 -7 -6 -3 -0 -0 -2 -3 -4 -4 -4 -5 -4 -5 -5 -6 -7
5 6 7 8 9 9 9 9 9 9 8 7 7 7 7 7 7 7 7 7 6 6 5 3 -3 -6 -8 -7 -2 -1 -1 -1 -2 -3 -3 -3 -4 -4 -5 -5 -6 -5 -6
4 5 5 5 4 5 6 3 2 1 1 1 2 3 5 5 5 5 5 5 4 2 -1 -4 -4 -7 -4 -2 -0 -1 -1 -2 -2 -2 -3 -4 -4 -4 -7 -7 -6 -6 -5
2 2 3 3 2 -1 -0 -1 -1 -0 1 2 3 4 4 4 4 4 3 2 -0 -2 -3 -5 -4 -3 -5 -2 -1 -1 -2 -1 -3 -2 -4 -4 -6 -5 -4 -7 -6 -6 -5
0 1 -0 -1 -1 -1 -2 -2 -2 -1 0 2 3 3 3 3 3 3 2 1 0 -1 -2 -3 -5 -6 -1 -1 -1 -1 -2 -2 -3 -4 -6 -6 -6 -6 -5 -5 -5 -5 -5
1 1 0 -0 -0 -1 -1 -1 -2 -1 1 2 2 2 1 1 0 -0 -1 -1 -2 -2 -3 -5 -4 -1 -1 -2 -1 -2 -5 -6 -7 -6 -7 -7 -7 -7 -6 -5 -5 -5 -5
0 0 0 0 -0 -0 -1 -1 -0 -0 0 1 1 0 -0 -1 -1 -1 -1 -1 -1 -1 -2 -1 -1 -1 -2 -4 -7 -9 -10 -8 -6 -6 -6 -7 -9 -12 -8 -6 -5 -5 -5
0 0 0 -0 -0 -0 -0 -1 -0 -0 0 0 -0 -0 -0 -0 -0 -1 -1 -1 -1 -1 -2 -5 -8 -11 -11 -11 -13 -11 -10 -8 -6 -5 -6 -6 -6 -11 -8 -6 -5 -5 -5
-0 -0 -0 -0 -0 -0 -1 -1 -1 -0 -1 -2 -2 -2 -2 -3 -4 -4 -7 -8 -8 -10 -8 -10 -10 -7 -5 -5 -5 -7 -7 -7 -6 -6 -5 -5 -5 -6 -8 -6 -6 -5 -5
-1 -1 -0 -1 -1 -1 -2 -2 -1 -2 -2 -3 -6 -10 -13 -14 -15 -14 -12 -7 -6 -7 -7 -8 -6 -7 -7 -8 -8 -14 -19 -19 -16 -13 -8 -6 -6 -5 -5 -6 -6 -5 -5
-1 -1 -2 -3 -3 -3 -3 -3 -3 -5 -9 -12 -13 -14 -15 -15 -14 -13 -15 -14 -17 -20 -15 -11 -10 -10 -10 -10 -10 -19 -20 -17 -15 -13 -15 -23 -18 -7 -6 -6 -6 -6 -6
-2 -2 -3 -3 -3 -4 -5 -7 -9 -11 -13 -14 -15 -15 -16 -19 -22 -24 -29 -32 -29 -35 -34 -30 -27 -22 -16 -12 -22 -20 -18 -17 -18 -17 -16 -10 -10 -10 -10 -7 -7 -6 -6
-3 -3 -3 -4 -5 -7 -8 -10 -11 -13 -14 -15 -18 -22 -25 -27 -27 -25 -15 -28 -33 -33 -33 -31 -29 -28 -25 -23 -23 -22 -21 -19 -17 -15 -11 -10 -9 -8 -8 -9 -7 -6 -7
Wind_Speed
16 17 19 21 22 25 24 23 23 21 19 18 19 19 21 19 21 20 22 21 18 16 18 19 19 17 12 11 10 8 6 4 3 3 7 8 8 7 7 7 7 7 6
19 20 20 22 22 23 24 24 24 22 22 20 20 20 20 20 21 26 24 23 22 21 21 22 20 19 16 14 13 9 6 5 5 4 9 11 12 8 9 9 9 9 8
21 22 23 24 25 26 26 25 24 22 22 22 21 19 20 24 26 28 27 25 24 24 24 24 24 23 20 17 15 12 10 6 7 13 12 9 10 8 10 11 9 10 8
23 24 26 27 28 28 27 26 26 25 24 24 23 24 24 21 26 31 26 27 24 25 26 26 27 25 24 21 18 16 11 10 14 17 11 12 11 9 10 8 9 9 11
25 26 27 27 26 27 28 27 27 26 26 27 28 25 25 21 19 26 23 27 26 27 29 29 29 28 26 22 20 14 12 14 14 10 10 10 9 9 11 15 12 12 12
30 29 28 26 27 27 28 28 29 28 28 29 32 32 27 24 26 29 29 30 31 30 31 31 31 30 26 23 18 15 13 13 15 8 10 11 10 11 12 13 14 14 13
29 30 30 31 30 31 30 29 30 31 30 32 35 37 36 35 34 35 34 32 32 33 34 33 33 31 27 25 20 14 22 17 10 10 10 10 10 11 11 12 14 14 14
26 32 33 33 31 31 31 31 32 32 30 33 36 36 36 36 35 36 37 35 34 35 34 35 25 32 30 22 16 23 20 13 10 12 13 11 10 11 11 12 12 15 16
16 22 25 29 29 29 31 32 32 32 31 32 32 33 35 36 40 35 36 32 32 35 39 36 31 33 26 20 19 23 15 14 10 12 12 11 11 11 12 12 13 14 17
4 9 14 18 21 24 25 26 27 29 29 26 28 28 31 32 30 26 32 33 34 35 37 37 31 31 27 22 25 16 15 11 11 13 13 12 12 12 13 13 15 15 17
1 1 5 8 12 16 19 20 23 25 23 23 22 23 26 31 27 29 35 35 33 34 35 37 36 33 26 26 22 17 13 12 13 14 16 15 13 13 13 14 16 17 18
2 1 3 7 9 10 12 14 15 16 17 16 17 19 24 26 28 28 30 30 31 31 32 34 33 25 26 22 18 14 13 12 19 17 18 17 16 17 16 17 18 19 19
3 4 5 6 9 10 10 10 11 11 12 16 16 17 19 23 25 26 28 26 25 27 31 32 28 29 26 23 19 21 18 22 17 17 19 21 20 21 21 20 21 20 20
4 6 7 6 7 7 7 7 8 9 10 10 10 13 14 16 17 19 20 20 20 22 25 27 27 27 24 22 22 23 25 21 16 20 21 22 24 25 24 23 24 23 22
5 7 8 9 8 8 8 7 7 6 5 4 5 7 8 9 10 11 12 15 15 17 17 20 24 23 24 25 22 21 21 20 18 21 23 26 29 31 31 28 27 24 23
11 11 12 12 12 12 10 9 8 6 4 3 4 5 6 5 6 7 8 10 11 13 14 21 24 27 27 28 29 26 24 21 21 24 23 25 29 33 34 35 35 32 25
16 15 15 15 16 15 13 10 7 4 2 0 1 1 2 2 3 4 5 8 10 13 18 23 25 25 30 34 29 29 29 32 24 23 24 26 26 29 30 31 33 36 32
16 16 16 16 15 13 11 9 7 5 4 3 3 3 3 2 1 2 3 4 6 10 14 20 23 28 33 30 31 33 34 23 23 25 27 28 29 28 29 25 29 31 31
16 16 16 15 14 12 10 8 7 7 7 7 8 8 9 9 10 10 9 6 1 7 13 17 21 23 22 26 30 27 22 25 28 25 25 26 27 27 30 32 28 28 24
15 16 16 14 12 11 10 10 11 10 11 11 12 13 13 12 10 7 4 2 2 5 9 13 16 21 23 18 20 23 26 27 27 28 27 28 31 28 30 32 32 30 26
18 16 15 14 13 13 11 12 13 13 13 14 13 12 11 8 6 1 3 5 7 9 10 11 13 16 18 20 21 22 24 25 27 28 30 28 29 30 28 32 34 38 33
18 16 16 16 15 14 12 14 13 13 12 10 8 6 5 4 4 3 2 3 5 7 9 12 14 14 15 18 20 24 25 26 28 34 31 31 32 33 30 32 36 38 37
18 17 17 17 16 14 12 13 13 11 9 8 7 6 5 3 2 2 4 4 6 8 10 11 12 13 15 17 22 27 29 32 35 36 35 37 37 36 37 37 36 38 38
20 20 19 17 16 14 13 12 12 11 9 7 6 4 2 1 2 4 6 6 9 10 11 11 12 14 16 16 20 28 31 31 32 32 37 40 40 40 37 36 37 39 44
22 20 19 18 17 15 14 14 13 11 8 6 4 2 1 2 4 6 7 8 11 13 14 15 16 18 19 18 25 28 29 30 32 36 36 31 30 32 35 34 35 35 36
22 21 20 19 18 17 16 15 12 10 7 4 2 0 2 4 4 5 5 13 11 12 13 13 17 19 21 23 25 26 28 28 28 29 25 27 27 27 28 32 33 32 34
Wind_Direction
194 196 193 191 193 197 199 201 203 207 205 204 201 200 202 205 214 214 218 220 225 232 228 233 229 223 213 213 243 253 261 270 287 278 297 287 278 253 245 238 239 257 279
199 201 201 200 200 200 201 205 207 206 209 209 206 205 206 214 217 223 223 226 231 236 232 233 230 222 220 234 243 249 235 221 309 308 305 308 282 255 250 241 252 249 271
206 208 210 210 210 209 209 209 212 211 211 208 207 210 209 220 224 225 228 228 232 240 237 231 228 230 234 241 248 248 229 219 292 320 295 306 287 289 251 249 246 257 271
211 212 214 214 215 216 215 215 216 215 216 211 212 214 218 222 232 235 234 230 237 240 233 229 231 236 240 244 244 236 225 278 307 308 277 270 265 276 277 252 256 253 275
215 218 216 218 217 215 215 216 217 218 217 217 218 222 223 228 231 246 230 232 239 237 230 231 233 235 237 239 240 230 246 294 301 282 263 262 266 263 264 276 268 271 284
218 220 220 220 219 216 215 216 216 220 219 222 230 230 230 227 228 237 239 241 239 235 234 236 236 235 236 240 235 233 284 288 290 276 248 248 259 269 266 270 275 276 275
221 222 220 220 219 217 214 214 217 220 221 224 231 234 235 235 245 248 249 248 243 237 238 233 236 235 239 244 234 257 287 272 258 261 251 251 251 256 261 270 277 278 276
222 224 224 222 221 218 218 218 222 221 221 228 235 235 238 242 245 249 250 248 255 250 245 240 256 240 240 234 235 284 267 255 244 256 255 251 248 251 259 265 271 277 277
238 231 228 225 223 221 219 218 219 223 223 230 233 234 241 243 244 250 251 255 262 251 247 246 253 236 237 226 260 268 246 241 258 262 248 247 255 260 263 261 258 265 277
243 225 223 221 221 222 223 222 221 226 227 226 234 236 242 247 256 262 260 256 259 253 247 242 238 233 240 236 267 235 238 227 270 260 249 249 257 256 254 255 258 261 269
292 210 202 200 205 207 213 220 222 226 225 225 233 235 240 249 251 255 256 257 259 252 249 246 248 247 223 253 231 235 218 267 279 259 253 250 251 251 254 255 258 264 270
316 193 166 176 177 185 196 205 211 215 218 225 231 232 254 260 261 260 256 262 257 255 252 249 249 230 227 226 227 217 238 268 285 256 249 250 251 253 255 259 262 267 270
243 179 155 166 167 175 183 188 199 210 218 231 244 251 252 258 261 262 265 270 269 261 253 249 235 223 234 225 228 216 235 279 278 251 248 251 253 258 259 261 265 268 272
206 184 163 161 156 167 183 195 211 218 233 239 251 258 266 267 268 273 272 267 261 254 251 242 225 228 223 216 217 226 273 289 261 253 252 252 254 257 259 263 266 268 270
151 147 147 140 134 136 145 155 174 184 195 208 227 247 264 266 264 262 257 250 252 250 247 235 221 227 221 219 218 268 276 278 269 265 262 261 260 259 257 261 261 260 266
126 120 117 115 113 115 114 125 127 130 150 197 239 259 267 267 267 265 260 260 256 241 229 220 226 217 223 222 277 274 282 275 273 271 271 272 271 271 267 265 258 251 256
129 121 113 108 108 112 111 111 110 110 117 179 240 269 281 275 268 269 268 259 245 236 224 218 233 221 235 258 274 275 275 288 276 275 278 278 274 271 265 268 258 252 253
129 123 120 117 113 109 107 103 97 90 85 79 69 72 79 74 45 338 320 297 277 263 250 248 236 237 264 264 279 286 285 283 282 282 281 279 277 272 264 255 254 247 249
132 128 126 122 119 114 105 93 83 82 84 84 85 89 93 95 91 77 62 44 311 268 257 244 259 278 274 281 287 291 289 290 288 286 285 281 278 275 264 259 244 240 242
132 132 129 125 121 111 107 98 95 96 91 91 93 93 92 90 88 81 74 79 267 272 278 280 276 278 284 289 294 295 294 292 290 290 289 287 285 283 273 263 245 241 243
142 137 132 128 119 114 113 103 105 98 101 99 99 98 100 110 118 77 320 310 301 297 290 292 294 296 296 296 295 294 292 293 291 288 288 285 284 289 274 265 255 251 258
144 142 135 125 119 118 123 116 110 111 109 107 105 102 89 79 67 60 28 341 318 310 310 305 303 302 302 301 303 294 288 285 286 287 288 284 282 282 282 271 259 255 258
147 141 139 132 125 125 129 125 123 125 126 124 116 106 98 81 37 350 329 336 326 316 311 313 311 309 304 309 298 296 293 290 289 286 284 283 284 276 271 268 263 255 252
151 148 145 141 138 138 138 141 140 139 137 134 127 117 108 42 347 339 324 323 316 316 317 321 316 314 315 317 303 311 313 311 308 301 298 296 282 276 279 274 264 254 246
154 150 149 146 142 145 147 144 143 145 151 147 138 128 19 344 334 321 315 317 312 320 321 316 317 315 317 309 314 314 314 314 313 309 308 303 298 296 279 277 280 257 246
155 151 150 149 147 150 152 152 154 153 152 150 144 70 332 329 332 333 340 324 327 328 329 324 322 321 318 320 321 320 318 319 317 320 314 305 304 300 296 282 272 269 263
Height
1524 1528 1530 1533 1535 1539 1541 1544 1546 1549 1552 1555 1556 1557 1561 1563 1565 1566 1568 1570 1571 1572 1573 1573 1576 1577 1577 1577 1576 1577 1578 1578 1579 1580 1579 1575 1571 1570 1571 1571 1571 1570 1569
1521 1524 1527 1530 1532 1535 1537 1540 1542 1546 1549 1552 1554 1557 1559 1562 1562 1563 1564 1566 1567 1569 1569 1570 1571 1574 1574 1572 1574 1575 1576 1577 1577 1579 1578 1574 1572 1567 1567 1568 1567 1566 1566
1516 1519 1522 1525 1528 1530 1533 1536 1540 1543 1545 1548 1551 1553 1555 1555 1557 1559 1559 1562 1564 1565 1565 1566 1568 1569 1570 1569 1571 1571 1571 1574 1573 1573 1574 1569 1568 1566 1564 1563 1564 1563 1562
1510 1513 1517 1519 1522 1526 1530 1533 1537 1539 1542 1545 1548 1547 1551 1553 1553 1554 1556 1559 1559 1559 1560 1561 1563 1564 1565 1566 1567 1567 1568 1569 1567 1566 1567 1566 1565 1565 1563 1560 1559 1558 1558
1503 1506 1510 1514 1517 1521 1523 1527 1531 1535 1537 1538 1541 1543 1546 1549 1551 1549 1552 1553 1553 1554 1555 1556 1558 1559 1560 1561 1562 1564 1566 1564 1563 1562 1563 1563 1561 1560 1560 1557 1557 1555 1554
1495 1499 1503 1508 1511 1515 1517 1521 1524 1528 1530 1532 1534 1537 1540 1543 1543 1544 1545 1547 1548 1549 1550 1551 1552 1553 1555 1556 1558 1560 1560 1560 1558 1557 1557 1558 1558 1557 1556 1554 1553 1552 1551
1489 1492 1496 1499 1503 1507 1510 1514 1516 1520 1523 1525 1527 1530 1533 1536 1537 1539 1540 1541 1542 1544 1545 1546 1546 1548 1548 1550 1553 1555 1554 1555 1553 1553 1555 1552 1551 1552 1551 1550 1548 1548 1547
1480 1483 1486 1491 1495 1499 1503 1506 1509 1512 1516 1518 1520 1524 1528 1530 1531 1533 1534 1535 1537 1537 1539 1540 1542 1544 1544 1546 1549 1549 1549 1550 1550 1550 1549 1549 1547 1546 1546 1546 1545 1543 1542
1474 1476 1480 1484 1489 1493 1495 1498 1503 1506 1510 1511 1515 1518 1521 1522 1524 1527 1528 1529 1530 1532 1533 1535 1536 1538 1541 1542 1543 1543 1545 1545 1545 1546 1545 1544 1544 1543 1543 1542 1542 1541 1538
1470 1471 1474 1478 1482 1487 1491 1494 1497 1499 1503 1508 1509 1512 1514 1515 1516 1521 1523 1523 1524 1525 1526 1529 1531 1532 1532 1538 1537 1538 1540 1542 1542 1542 1542 1540 1540 1538 1538 1538 1538 1537 1535
1469 1469 1469 1473 1477 1481 1485 1488 1490 1493 1498 1503 1504 1506 1508 1508 1510 1512 1514 1516 1518 1518 1518 1520 1520 1524 1530 1532 1532 1534 1536 1537 1538 1539 1538 1536 1536 1535 1534 1534 1533 1532 1531
1469 1468 1468 1469 1472 1475 1480 1483 1487 1491 1494 1498 1499 1501 1502 1503 1504 1506 1507 1509 1510 1510 1513 1514 1517 1520 1524 1526 1528 1530 1532 1532 1530 1531 1532 1532 1532 1531 1530 1529 1528 1527 1525
1468 1468 1468 1470 1471 1473 1476 1479 1482 1486 1489 1491 1493 1495 1496 1498 1500 1500 1501 1503 1503 1505 1506 1508 1511 1513 1518 1520 1522 1522 1524 1526 1524 1526 1526 1526 1526 1525 1524 1523 1522 1520 1518
1466 1466 1468 1470 1471 1473 1475 1477 1479 1483 1486 1487 1489 1490 1492 1493 1494 1495 1496 1497 1497 1499 1500 1503 1507 1511 1513 1516 1516 1517 1519 1520 1520 1520 1520 1520 1519 1518 1518 1516 1515 1513 1512
1464 1465 1467 1469 1471 1472 1473 1475 1477 1480 1482 1484 1485 1486 1487 1489 1490 1491 1492 1493 1494 1496 1498 1501 1506 1510 1511 1512 1512 1513 1514 1514 1514 1514 1513 1512 1510 1508 1508 1508 1507 1505 1505
1464 1466 1467 1468 1469 1471 1474 1475 1477 1479 1481 1482 1483 1484 1485 1485 1486 1487 1488 1489 1491 1493 1497 1500 1502 1503 1509 1505 1507 1511 1510 1509 1508 1507 1505 1504 1502 1498 1497 1496 1496 1496 1495
1463 1465 1466 1468 1469 1471 1473 1475 1477 1478 1479 1480 1481 1481 1481 1482 1483 1484 1485 1487 1490 1492 1495 1496 1499 1501 1504 1505 1505 1505 1504 1501 1500 1499 1498 1495 1494 1491 1487 1485 1485 1484 1485
1463 1464 1466 1468 1469 1471 1473 1475 1476 1477 1478 1478 1479 1479 1480 1481 1482 1483 1485 1487 1489 1491 1494 1495 1498 1499 1500 1501 1501 1500 1497 1494 1493 1492 1490 1487 1484 1482 1481 1479 1476 1474 1475
1462 1464 1465 1467 1469 1471 1473 1474 1475 1476 1476 1477 1478 1479 1480 1481 1483 1485 1486 1488 1490 1491 1493 1495 1496 1496 1496 1496 1495 1493 1490 1488 1485 1483 1480 1478 1475 1473 1471 1470 1468 1468 1467
1462 1463 1465 1467 1469 1470 1472 1473 1474 1475 1476 1477 1478 1480 1481 1483 1484 1486 1487 1488 1490 1491 1491 1491 1491 1491 1491 1490 1489 1488 1484 1480 1477 1474 1471 1468 1465 1464 1461 1460 1459 1458 1459
1460 1463 1465 1466 1467 1469 1471 1472 1473 1474 1477 1479 1480 1481 1483 1484 1485 1486 1487 1487 1488 1488 1488 1488 1488 1487 1486 1485 1483 1481 1477 1473 1469 1466 1462 1460 1456 1453 1452 1450 1448 1446 1450
1459 1462 1464 1465 1467 1469 1471 1472 1473 1476 1478 1479 1480 1481 1482 1483 1484 1485 1485 1486 1486 1485 1485 1483 1483 1482 1481 1479 1476 1471 1468 1465 1461 1455 1452 1449 1447 1443 1441 1440 1438 1438 1439
1458 1461 1462 1463 1466 1468 1470 1472 1474 1476 1478 1479 1480 1481 1482 1483 1484 1484 1484 1484 1483 1482 1481 1479 1478 1477 1474 1471 1467 1462 1459 1456 1451 1447 1442 1437 1434 1432 1429 1426 1427 1427 1427
1456 1458 1460 1461 1464 1467 1470 1472 1473 1475 1477 1478 1479 1480 1481 1481 1481 1481 1481 1480 1479 1477 1476 1474 1473 1470 1467 1464 1459 1453 1448 1444 1440 1435 1430 1426 1423 1419 1417 1415 1414 1413 1412
1453 1456 1458 1460 1463 1466 1468 1470 1473 1475 1476 1477 1478 1479 1479 1479 1479 1478 1478 1476 1474 1473 1471 1468 1466 1463 1460 1457 1452 1447 1442 1437 1432 1425 1420 1415 1413 1409 1406 1404 1402 1401 1400
1449 1453 1456 1459 1461 1464 1467 1469 1471 1473 1475 1475 1476 1476 1476 1476 1476 1475 1475 1472 1471 1468 1466 1463 1460 1457 1453 1449 1445 1441 1436 1431 1426 1420 1416 1411 1407 1403 1399 1396 1394 1393 1393